Welcome to Northern Hawkes Bay. New Zealand.
PWS Header
      nz Flag



Hit Counter


W3C Valid W3C Valid logo


    Wairoa

Select any of the Stations below to visit their websites.










Historic Data from Weather Underground
Select the location of interest below. Wairoa is the default. Please have patience, this Data is slow to load in.
Northern Hawkes Bay Historical Data
Daily Summary for July 23, 2017 Units:  English    Metric   Both
« Previous Day
Next Day »
Daily Weekly Monthly Yearly Custom
  High: Low: Average:
Temperature: 57.7 °F 42.4 °F 50.2 °F
Dew Point: 47.3 °F 41.7 °F 43.9 °F
Humidity: 99% 61% 80%
Wind Speed: 16.8mph 0mph 4.9mph
Wind Gust: 25.9mph - -
Wind- - WSW
Pressure: 29.7 in 29.5 in -
Precipitation: 0.01 in    
Historical Graphs
 
 
Tabular Data for July 23, 2017
Time Temperature Dew Point Pressure Wind Wind Speed Wind Gust Humidity Rainfall Rate (Hourly) solar
00:04 52 °F 47.3 °F 29.5 in West 15.2 mph 25.9 mph 84% 0 in 0 W/m2
00:09 52 °F 47.3 °F 29.5 in WSW 16.8 mph 23.5 mph 84% 0 in 0 W/m2
00:14 52 °F 47.3 °F 29.5 in WSW 15.2 mph 24.4 mph 84% 0 in 0 W/m2
00:19 52 °F 47.3 °F 29.5 in WSW 15.9 mph 24.4 mph 84% 0 in 0 W/m2
00:24 52 °F 47.3 °F 29.5 in SW 11.4 mph 22.1 mph 84% 0 in 0 W/m2
00:29 52 °F 47.3 °F 29.5 in SW 13 mph 22.8 mph 84% 0 in 0 W/m2
00:34 52 °F 47.3 °F 29.5 in SW 13 mph 23.5 mph 84% 0 in 0 W/m2
00:39 51.6 °F 46.9 °F 29.5 in SW 14.5 mph 23.5 mph 84% 0 in 0 W/m2
01:00 51.6 °F 46.9 °F 29.5 in WSW 11.4 mph 22.8 mph 84% 0 in 0 W/m2
01:05 51.6 °F 46.9 °F 29.5 in WSW 9.2 mph 24.4 mph 84% 0 in 0 W/m2
01:10 51.6 °F 46.9 °F 29.5 in WSW 12.1 mph 24.4 mph 84% 0 in 0 W/m2
01:15 51.4 °F 46.8 °F 29.5 in WSW 13 mph 18.3 mph 84% 0 in 0 W/m2
01:20 51.4 °F 46.8 °F 29.5 in WSW 8.3 mph 18.3 mph 84% 0 in 0 W/m2
01:25 51.4 °F 46.8 °F 29.5 in WSW 9.8 mph 20.6 mph 84% 0 in 0 W/m2
01:30 51.4 °F 46.8 °F 29.5 in WSW 15.9 mph 22.1 mph 84% 0 in 0 W/m2
01:35 51.4 °F 46.8 °F 29.5 in WSW 11.4 mph 22.1 mph 84% 0 in 0 W/m2
01:40 51.3 °F 46.2 °F 29.5 in SW 10.7 mph 22.1 mph 83% 0 in 0 W/m2
01:46 51.3 °F 46.6 °F 29.5 in SW 14.5 mph 21.3 mph 84% 0 in 0 W/m2
01:51 51.3 °F 46.6 °F 29.5 in SW 13.6 mph 20.6 mph 84% 0 in 0 W/m2
01:56 51.4 °F 46.8 °F 29.5 in SW 16.8 mph 22.8 mph 84% 0 in 0 W/m2
02:01 51.4 °F 46.6 °F 29.5 in SW 12.1 mph 25.1 mph 83% 0 in 0 W/m2
02:06 51.3 °F 46.2 °F 29.5 in SW 7.6 mph 25.1 mph 83% 0 in 0 W/m2
02:11 51.3 °F 46.2 °F 29.5 in SW 10.7 mph 22.1 mph 83% 0 in 0 W/m2
02:16 51.3 °F 46.2 °F 29.5 in SW 12.1 mph 22.8 mph 83% 0 in 0 W/m2
02:21 51.3 °F 46.2 °F 29.5 in WSW 14.5 mph 22.8 mph 83% 0 in 0 W/m2
02:26 51.3 °F 46.2 °F 29.5 in SW 11.4 mph 19.7 mph 83% 0 in 0 W/m2
02:31 51.1 °F 46 °F 29.5 in SW 12.1 mph 19.7 mph 83% 0 in 0 W/m2
02:36 51.1 °F 46 °F 29.5 in SW 9.2 mph 15.9 mph 83% 0 in 0 W/m2
02:41 51.1 °F 46 °F 29.5 in WSW 6.9 mph 15.9 mph 83% 0 in 0 W/m2
02:46 51.1 °F 46 °F 29.5 in WSW 8.3 mph 21.3 mph 83% 0 in 0 W/m2
02:51 51.1 °F 46 °F 29.5 in WSW 9.8 mph 21.3 mph 83% 0 in 0 W/m2
02:56 51.1 °F 46 °F 29.5 in WSW 10.7 mph 19 mph 83% 0 in 0 W/m2
03:01 51.1 °F 46 °F 29.5 in SW 7.6 mph 19.7 mph 83% 0 in 0 W/m2
03:06 51.1 °F 46 °F 29.5 in WSW 13.6 mph 19.7 mph 83% 0 in 0 W/m2
03:11 51.1 °F 46 °F 29.5 in WSW 8.3 mph 19 mph 83% 0 in 0 W/m2
03:16 51.1 °F 46 °F 29.5 in WSW 9.2 mph 19 mph 83% 0 in 0 W/m2
03:21 51.1 °F 45.9 °F 29.5 in SW 13 mph 18.3 mph 82% 0 in 0 W/m2
03:26 51.1 °F 45.9 °F 29.5 in SW 9.8 mph 18.3 mph 82% 0 in 0 W/m2
03:31 51.1 °F 45.1 °F 29.5 in SW 13.6 mph 21.3 mph 80% 0.01 in 0 W/m2
03:36 50.9 °F 45 °F 29.5 in SW 10.7 mph 22.8 mph 80% 0.01 in 0 W/m2
03:41 50.9 °F 45 °F 29.5 in SW 6.9 mph 22.8 mph 80% 0.01 in 0 W/m2
03:47 50.7 °F 45.1 °F 29.5 in SW 14.5 mph 21.3 mph 81% 0.01 in 0 W/m2
03:52 50.7 °F 44.8 °F 29.5 in SW 13 mph 21.3 mph 80% 0.01 in 0 W/m2
03:57 50.7 °F 44.8 °F 29.5 in SW 14.5 mph 21.3 mph 80% 0.01 in 0 W/m2
04:02 50.5 °F 44.2 °F 29.6 in WSW 7.6 mph 20.6 mph 79% 0.01 in 0 W/m2
04:07 50.5 °F 44.2 °F 29.6 in WSW 10.7 mph 19 mph 79% 0.01 in 0 W/m2
04:12 50.5 °F 44.2 °F 29.6 in WSW 14.5 mph 19 mph 79% 0.01 in 0 W/m2
04:17 50.5 °F 44.2 °F 29.6 in SW 13.6 mph 19.7 mph 79% 0.01 in 0 W/m2
04:22 50.5 °F 44.2 °F 29.6 in SW 10.7 mph 20.6 mph 79% 0.01 in 0 W/m2
04:27 50.4 °F 44.1 °F 29.6 in SW 9.8 mph 20.6 mph 79% 0 in 0 W/m2
04:32 50.4 °F 43.9 °F 29.6 in SW 10.7 mph 21.3 mph 78% 0 in 0 W/m2
04:37 50.4 °F 43.9 °F 29.6 in SW 11.4 mph 21.3 mph 78% 0 in 0 W/m2
04:42 50.4 °F 44.1 °F 29.6 in SW 7.6 mph 21.3 mph 79% 0 in 0 W/m2
04:47 50.2 °F 43.9 °F 29.6 in WSW 11.4 mph 20.6 mph 79% 0 in 0 W/m2
04:52 50 °F 43.3 °F 29.6 in WSW 13.6 mph 17.4 mph 78% 0 in 0 W/m2
04:57 50 °F 43.9 °F 29.6 in WSW 6.9 mph 17.4 mph 79% 0 in 0 W/m2
05:02 50 °F 44.1 °F 29.6 in WSW 9.8 mph 16.8 mph 80% 0 in 0 W/m2
05:07 50 °F 44.1 °F 29.6 in SW 9.2 mph 15.2 mph 80% 0 in 0 W/m2
05:12 50 °F 43.9 °F 29.6 in SW 12.1 mph 17.4 mph 79% 0 in 0 W/m2
05:17 50 °F 44.1 °F 29.6 in WSW 6.9 mph 17.4 mph 80% 0 in 0 W/m2
05:22 50 °F 44.1 °F 29.6 in WSW 6.9 mph 14.5 mph 80% 0 in 0 W/m2
05:27 49.8 °F 43.9 °F 29.6 in WSW 9.8 mph 14.5 mph 80% 0 in 0 W/m2
05:32 49.8 °F 43.9 °F 29.6 in WSW 6 mph 14.5 mph 80% 0 in 0 W/m2
05:37 49.6 °F 43.7 °F 29.6 in SW 6 mph 14.5 mph 80% 0 in 0 W/m2
05:42 49.5 °F 43.9 °F 29.6 in SW 5.4 mph 13.6 mph 81% 0 in 0 W/m2
05:47 49.5 °F 43.9 °F 29.6 in WSW 6.9 mph 12.1 mph 81% 0 in 0 W/m2
05:52 49.5 °F 43.9 °F 29.6 in WSW 9.8 mph 13.6 mph 81% 0 in 0 W/m2
05:57 49.5 °F 43.9 °F 29.6 in West 8.3 mph 13.6 mph 81% 0 in 0 W/m2
06:02 49.5 °F 43.5 °F 29.6 in WSW 5.4 mph 13.6 mph 80% 0 in 0 W/m2
06:07 49.5 °F 43.5 °F 29.6 in WSW 6.9 mph 11.4 mph 80% 0 in 0 W/m2
06:12 49.5 °F 43.5 °F 29.6 in WSW 6 mph 11.4 mph 80% 0 in 0 W/m2
06:17 49.6 °F 43.7 °F 29.6 in SW 3.1 mph 10.7 mph 80% 0 in 0 W/m2
06:22 49.5 °F 43.9 °F 29.6 in WSW 3.1 mph 10.7 mph 81% 0 in 0 W/m2
06:27 49.3 °F 43.7 °F 29.6 in West 6.9 mph 8.3 mph 81% 0 in 0 W/m2
06:32 49.3 °F 43.7 °F 29.6 in WSW 3.8 mph 8.3 mph 81% 0 in 0 W/m2
06:37 49.1 °F 43.5 °F 29.6 in West 1.6 mph 8.3 mph 81% 0 in 0 W/m2
06:42 49.1 °F 43.5 °F 29.6 in WNW 3.1 mph 6.9 mph 81% 0 in 0 W/m2
06:47 48.9 °F 43 °F 29.6 in West 2.2 mph 6 mph 80% 0 in 0 W/m2
06:52 48.7 °F 43 °F 29.6 in West 2.2 mph 5.4 mph 80% 0 in 0 W/m2
06:57 48.6 °F 42.6 °F 29.6 in West 2.2 mph 6.9 mph 80% 0 in 0 W/m2
07:02 48.4 °F 42.4 °F 29.6 in WNW 3.8 mph 6.9 mph 80% 0 in 0 W/m2
07:07 48.4 °F 42.3 °F 29.6 in WNW 2.2 mph 8.3 mph 79% 0 in 0 W/m2
07:13 48.2 °F 42.1 °F 29.6 in WNW 1.6 mph 8.3 mph 79% 0 in 0 W/m2
07:18 47.7 °F 41.7 °F 29.6 in NW 3.1 mph 4.5 mph 80% 0 in 0 W/m2
07:23 47.3 °F 41.7 °F 29.6 in NNW 1.6 mph 4.5 mph 81% 0 in 2 W/m2
07:28 47.1 °F 41.9 °F 29.6 in NNW 2.2 mph 4.5 mph 82% 0 in 4 W/m2
07:33 46.8 °F 41.9 °F 29.6 in North 1.6 mph 3.8 mph 83% 0 in 9 W/m2
07:38 46.6 °F 42.3 °F 29.6 in NNW 0.7 mph 3.8 mph 85% 0 in 18 W/m2
07:43 46.6 °F 42.3 °F 29.6 in NNW 0.7 mph 2.2 mph 85% 0 in 23 W/m2
07:48 46.6 °F 42.6 °F 29.6 in Calm   2.2 mph 86% 0 in 26 W/m2
07:53 46.6 °F 42.6 °F 29.6 in NNW 0.7 mph 2.2 mph 86% 0 in 28 W/m2
07:58 46.8 °F 42.8 °F 29.6 in NNW 1.6 mph 7.6 mph 86% 0 in 30 W/m2
08:03 46.8 °F 42.8 °F 29.6 in NNW 1.6 mph 7.6 mph 86% 0 in 35 W/m2
08:08 46.9 °F 43 °F 29.6 in NW 3.1 mph 3.8 mph 86% 0 in 42 W/m2
08:13 47.1 °F 43.2 °F 29.6 in NW 1.6 mph 3.8 mph 86% 0 in 51 W/m2
08:18 47.3 °F 43 °F 29.6 in NW 1.6 mph 3.8 mph 85% 0 in 79 W/m2
08:23 47.7 °F 43.3 °F 29.7 in NW 2.2 mph 3.8 mph 85% 0 in 96 W/m2
08:28 48.6 °F 44.1 °F 29.6 in NW 1.6 mph 3.8 mph 84% 0 in 116 W/m2
08:33 49.5 °F 44.8 °F 29.7 in NW 1.6 mph 3.8 mph 84% 0 in 150 W/m2
08:38 50.4 °F 44.8 °F 29.7 in NW 2.2 mph 4.5 mph 81% 0 in 140 W/m2
08:43 50.7 °F 44.1 °F 29.7 in NW 2.2 mph 6 mph 78% 0 in 183 W/m2
08:48 51.4 °F 44.1 °F 29.7 in NW 3.8 mph 6 mph 76% 0 in 189 W/m2
08:53 51.6 °F 44.1 °F 29.7 in WNW 2.2 mph 6 mph 75% 0 in 194 W/m2
08:58 52.2 °F 44.1 °F 29.7 in WNW 4.5 mph 6 mph 74% 0 in 207 W/m2
09:03 52 °F 43.5 °F 29.7 in NW 3.8 mph 6.9 mph 73% 0 in 174 W/m2
09:08 52 °F 43.2 °F 29.7 in WNW 4.5 mph 6.9 mph 72% 0 in 226 W/m2
09:13 52 °F 43.2 °F 29.7 in WNW 6 mph 8.3 mph 72% 0 in 230 W/m2
09:18 52.3 °F 43.5 °F 29.7 in WNW 3.1 mph 8.3 mph 72% 0 in 243 W/m2
09:23 53.1 °F 44.2 °F 29.7 in WNW 1.6 mph 8.3 mph 72% 0 in 251 W/m2
09:28 53.6 °F 44.1 °F 29.7 in NW 2.2 mph 6.9 mph 70% 0 in 241 W/m2
09:33 53.4 °F 43.5 °F 29.7 in NW 1.6 mph 6.9 mph 69% 0 in 240 W/m2
09:38 54 °F 43.3 °F 29.7 in WNW 5.4 mph 7.6 mph 67% 0 in 153 W/m2
09:43 54 °F 43 °F 29.7 in West 2.2 mph 7.6 mph 66% 0 in 131 W/m2
09:48 54.3 °F 42.4 °F 29.7 in West 4.5 mph 7.6 mph 64% 0 in 125 W/m2
09:53 54.7 °F 43.2 °F 29.7 in WNW 2.2 mph 6 mph 65% 0 in 111 W/m2
09:58 55.2 °F 43.3 °F 29.7 in West 3.8 mph 6 mph 64% 0 in 98 W/m2
10:03 54.9 °F 42.1 °F 29.7 in WSW 5.4 mph 9.8 mph 62% 0 in 92 W/m2
10:08 54.9 °F 42.1 °F 29.7 in WSW 3.1 mph 9.8 mph 62% 0 in 87 W/m2
10:13 55.2 °F 42.4 °F 29.7 in WSW 3.1 mph 6.9 mph 62% 0 in 83 W/m2
10:18 55.4 °F 42.3 °F 29.7 in West 3.1 mph 6.9 mph 61% 0 in 83 W/m2
10:23 55.6 °F 42.4 °F 29.7 in West 4.5 mph 6.9 mph 61% 0 in 84 W/m2
10:28 54.5 °F 41.7 °F 29.7 in West 4.5 mph 8.3 mph 62% 0 in 86 W/m2
10:33 54.7 °F 42.3 °F 29.7 in West 2.2 mph 8.3 mph 63% 0 in 89 W/m2
10:38 55.6 °F 43.2 °F 29.7 in WSW 3.1 mph 8.3 mph 63% 0 in 94 W/m2
10:43 55.2 °F 43 °F 29.7 in WSW 6 mph 9.8 mph 63% 0 in 95 W/m2
10:48 55.6 °F 44.1 °F 29.7 in West 6 mph 9.8 mph 65% 0 in 100 W/m2
10:53 54.5 °F 42.3 °F 29.7 in West 6 mph 9.2 mph 63% 0 in 95 W/m2
10:58 53.8 °F 42.3 °F 29.7 in WSW 5.4 mph 13 mph 65% 0 in 96 W/m2
11:03 53.8 °F 42.6 °F 29.7 in WSW 7.6 mph 13 mph 66% 0 in 113 W/m2
11:08 53.6 °F 42.4 °F 29.7 in SW 7.6 mph 10.7 mph 66% 0 in 136 W/m2
11:13 53.6 °F 42.4 °F 29.7 in SW 7.6 mph 10.7 mph 66% 0 in 160 W/m2
11:18 53.1 °F 42.4 °F 29.7 in WSW 5.4 mph 13 mph 67% 0 in 149 W/m2
11:23 53.2 °F 42.6 °F 29.7 in WSW 6.9 mph 13 mph 67% 0 in 220 W/m2
11:28 54.1 °F 43 °F 29.7 in SW 4.5 mph 12.1 mph 66% 0 in 229 W/m2
11:33 55 °F 43.9 °F 29.7 in SW 2.2 mph 11.4 mph 66% 0 in 223 W/m2
11:38 55.2 °F 43.7 °F 29.7 in SW 3.8 mph 10.7 mph 65% 0 in 126 W/m2
11:42 54 °F 42.4 °F 29.7 in WSW 6 mph 10.7 mph 65% 0 in 107 W/m2
11:47 53.1 °F 42.8 °F 29.7 in WSW 5.4 mph 9.8 mph 68% 0 in 118 W/m2
11:52 53.2 °F 43 °F 29.7 in SW 5.4 mph 9.2 mph 68% 0 in 124 W/m2
11:57 54 °F 43.3 °F 29.7 in SW 5.4 mph 9.2 mph 67% 0 in 140 W/m2
12:02 55 °F 43.5 °F 29.7 in SW 7.6 mph 9.2 mph 65% 0 in 125 W/m2
12:07 55.2 °F 43.7 °F 29.7 in SW 4.5 mph 11.4 mph 65% 0 in 118 W/m2
12:12 55.4 °F 43.9 °F 29.7 in SW 5.4 mph 12.1 mph 65% 0 in 121 W/m2
12:17 55 °F 43.2 °F 29.7 in SW 6.9 mph 12.1 mph 64% 0 in 122 W/m2
12:22 54.9 °F 43 °F 29.7 in SW 6 mph 11.4 mph 64% 0 in 119 W/m2
12:27 55 °F 42.6 °F 29.7 in SW 3.1 mph 11.4 mph 63% 0 in 113 W/m2
12:32 54.3 °F 42.1 °F 29.7 in WSW 5.4 mph 11.4 mph 63% 0 in 108 W/m2
12:37 54.3 °F 42.4 °F 29.7 in WSW 4.5 mph 10.7 mph 64% 0 in 123 W/m2
12:42 54.1 °F 42.3 °F 29.7 in SW 8.3 mph 10.7 mph 64% 0 in 130 W/m2
12:47 54.1 °F 42.3 °F 29.7 in WSW 8.3 mph 11.4 mph 64% 0 in 144 W/m2
12:52 54.5 °F 43 °F 29.7 in SW 3.1 mph 11.4 mph 65% 0 in 160 W/m2
12:57 54.9 °F 43 °F 29.7 in SW 4.5 mph 11.4 mph 64% 0 in 170 W/m2
13:02 54.7 °F 43.2 °F 29.7 in WSW 5.4 mph 11.4 mph 65% 0 in 162 W/m2
13:07 54.3 °F 43.2 °F 29.7 in SW 6.9 mph 9.2 mph 66% 0 in 152 W/m2
13:12 54.7 °F 43.9 °F 29.7 in SW 8.3 mph 9.8 mph 67% 0 in 149 W/m2
13:17 54.1 °F 43 °F 29.7 in SW 9.2 mph 12.1 mph 66% 0 in 149 W/m2
13:22 54.1 °F 43.3 °F 29.7 in SW 5.4 mph 12.1 mph 67% 0 in 146 W/m2
13:27 54.3 °F 43.5 °F 29.7 in SW 3.8 mph 11.4 mph 67% 0 in 133 W/m2
13:32 54.1 °F 43.3 °F 29.7 in SW 6.9 mph 10.7 mph 67% 0 in 128 W/m2
13:37 54.1 °F 43.9 °F 29.6 in SW 6.9 mph 10.7 mph 68% 0 in 134 W/m2
13:42 54.1 °F 44.2 °F 29.6 in SW 8.3 mph 10.7 mph 69% 0 in 132 W/m2
13:47 53.8 °F 43.9 °F 29.7 in SW 7.6 mph 10.7 mph 69% 0 in 146 W/m2
13:53 54.1 °F 44.2 °F 29.6 in SSW 6.9 mph 10.7 mph 69% 0 in 140 W/m2
13:58 54.1 °F 44.2 °F 29.6 in SSW 5.4 mph 9.2 mph 69% 0 in 122 W/m2
14:03 53.8 °F 43.9 °F 29.7 in SW 6.9 mph 12.1 mph 69% 0 in 104 W/m2
14:08 53.6 °F 44.1 °F 29.6 in SW 3.8 mph 12.1 mph 70% 0 in 109 W/m2
14:13 53.8 °F 43.9 °F 29.6 in SW 3.8 mph 9.8 mph 69% 0 in 120 W/m2
14:18 53.8 °F 43.9 °F 29.6 in SW 4.5 mph 9.2 mph 69% 0 in 119 W/m2
14:23 53.8 °F 43.5 °F 29.7 in SW 3.1 mph 9.2 mph 68% 0 in 108 W/m2
14:28 54 °F 43.5 °F 29.6 in SSW 5.4 mph 9.2 mph 68% 0 in 111 W/m2
14:33 54.3 °F 44.1 °F 29.7 in SW 1.6 mph 6.9 mph 68% 0 in 152 W/m2
14:38 55.2 °F 45 °F 29.6 in SW 3.1 mph 6.9 mph 68% 0 in 165 W/m2
14:43 56.8 °F 45.7 °F 29.7 in SW 3.8 mph 6 mph 66% 0 in 212 W/m2
14:48 57.4 °F 44.4 °F 29.7 in SSW 5.4 mph 7.6 mph 62% 0 in 204 W/m2
14:53 57.4 °F 45 °F 29.6 in SSW 5.4 mph 9.2 mph 63% 0 in 206 W/m2
14:58 57.7 °F 45.1 °F 29.7 in SSW 2.2 mph 9.2 mph 63% 0 in 202 W/m2
15:03 57.7 °F 44.4 °F 29.6 in SSW 3.8 mph 8.3 mph 61% 0 in 185 W/m2
15:08 57 °F 44.1 °F 29.6 in SSW 2.2 mph 8.3 mph 62% 0 in 110 W/m2
15:13 56.5 °F 44.4 °F 29.7 in South 5.4 mph 8.3 mph 64% 0 in 96 W/m2
15:18 55 °F 43.2 °F 29.6 in South 3.1 mph 7.6 mph 64% 0 in 74 W/m2
15:23 54.5 °F 43.3 °F 29.6 in SSW 4.5 mph 7.6 mph 66% 0 in 62 W/m2
15:28 54.1 °F 43.9 °F 29.7 in SSW 1.6 mph 6.9 mph 68% 0 in 62 W/m2
15:33 54 °F 43.5 °F 29.7 in SW 2.2 mph 6.9 mph 68% 0 in 59 W/m2
15:38 54 °F 43.5 °F 29.7 in SSW 2.2 mph 4.5 mph 68% 0 in 52 W/m2
15:43 53.8 °F 43.5 °F 29.7 in South 1.6 mph 4.5 mph 68% 0 in 49 W/m2
15:48 53.8 °F 43.9 °F 29.7 in South 1.6 mph 4.5 mph 69% 0 in 44 W/m2
15:53 53.8 °F 44.6 °F 29.7 in SSW 0.7 mph 4.5 mph 71% 0 in 42 W/m2
15:58 53.8 °F 44.2 °F 29.7 in South 0.7 mph 3.8 mph 70% 0 in 43 W/m2
16:03 53.8 °F 44.6 °F 29.7 in South 1.6 mph 3.8 mph 71% 0 in 45 W/m2
16:06 53.6 °F 44.1 °F 29.7 in South 0.7 mph 3.8 mph 70% 0 in 47 W/m2
16:11 53.8 °F 43.9 °F 29.7 in South 2.2 mph 3.8 mph 69% 0 in 49 W/m2
16:16 53.8 °F 43.9 °F 29.7 in SSW 1.6 mph 3.8 mph 69% 0 in 48 W/m2
16:21 54.1 °F 44.6 °F 29.7 in SSW 1.6 mph 4.5 mph 70% 0 in 50 W/m2
16:26 54.1 °F 44.2 °F 29.7 in South 0.7 mph 4.5 mph 69% 0 in 47 W/m2
16:31 54.1 °F 44.2 °F 29.7 in South 0.7 mph 4.5 mph 69% 0 in 40 W/m2
16:36 54 °F 44.1 °F 29.7 in South 1.6 mph 4.5 mph 69% 0 in 32 W/m2
16:41 53.6 °F 44.1 °F 29.7 in South 0.7 mph 3.1 mph 70% 0 in 26 W/m2
16:46 53.4 °F 44.2 °F 29.7 in Calm   3.8 mph 71% 0 in 21 W/m2
16:51 53.2 °F 44.1 °F 29.7 in South 0.7 mph 3.8 mph 71% 0 in 13 W/m2
16:56 53.1 °F 44.2 °F 29.7 in Calm   3.1 mph 72% 0 in 7 W/m2
17:01 52.9 °F 44.1 °F 29.7 in Calm   2.2 mph 72% 0 in 4 W/m2
17:06 52.7 °F 43.9 °F 29.7 in Calm   0.7 mph 72% 0 in 2 W/m2
17:11 52.3 °F 43.5 °F 29.7 in Calm   0.7 mph 72% 0 in 0 W/m2
17:28 51.6 °F 44.1 °F 29.7 in Calm     75% 0 in 0 W/m2
17:33 51.1 °F 43.3 °F 29.7 in Calm     75% 0 in 0 W/m2
17:38 50.7 °F 43.2 °F 29.7 in Calm     75% 0 in 0 W/m2
17:43 50.5 °F 43.3 °F 29.7 in Calm     76% 0 in 0 W/m2
17:48 50.4 °F 43.2 °F 29.7 in Calm     76% 0 in 0 W/m2
17:53 50 °F 43.2 °F 29.7 in Calm     77% 0 in 0 W/m2
17:58 49.8 °F 43.9 °F 29.7 in Calm     80% 0 in 0 W/m2
18:03 49.6 °F 44.1 °F 29.7 in Calm     81% 0 in 0 W/m2
18:08 49.5 °F 44.2 °F 29.7 in Calm     82% 0 in 0 W/m2
18:13 49.3 °F 44.8 °F 29.7 in NE 0.7 mph 1.6 mph 84% 0 in 0 W/m2
18:18 48.9 °F 44.6 °F 29.7 in NE 0.7 mph 1.6 mph 85% 0 in 0 W/m2
18:23 48.7 °F 44.4 °F 29.7 in NNE 0.7 mph 1.6 mph 85% 0 in 0 W/m2
18:28 48.4 °F 44.4 °F 29.7 in North 1.6 mph 2.2 mph 86% 0 in 0 W/m2
18:33 48 °F 44.6 °F 29.7 in NW 1.6 mph 3.1 mph 88% 0 in 0 W/m2
18:38 47.5 °F 44.1 °F 29.7 in NW 1.6 mph 3.1 mph 88% 0 in 0 W/m2
18:43 47.3 °F 44.2 °F 29.7 in NW 1.6 mph 3.1 mph 89% 0 in 0 W/m2
18:48 46.9 °F 43.9 °F 29.7 in NW 0.7 mph 3.1 mph 89% 0 in 0 W/m2
18:53 46.8 °F 43.7 °F 29.7 in NW 0.7 mph 2.2 mph 89% 0 in 0 W/m2
18:58 46.8 °F 44.1 °F 29.7 in NW 0.7 mph 2.2 mph 90% 0 in 0 W/m2
19:03 46.6 °F 43.9 °F 29.7 in NW 0.7 mph 2.2 mph 90% 0 in 0 W/m2
19:08 46.6 °F 43.9 °F 29.7 in Calm   2.2 mph 90% 0 in 0 W/m2
19:13 46.2 °F 43.7 °F 29.7 in Calm   2.2 mph 91% 0 in 0 W/m2
19:18 46.2 °F 43.7 °F 29.7 in North 1.6 mph 2.2 mph 91% 0 in 0 W/m2
19:23 46.2 °F 44.1 °F 29.7 in North 2.2 mph 3.1 mph 92% 0 in 0 W/m2
19:28 46 °F 43.9 °F 29.7 in North 0.7 mph 3.1 mph 92% 0 in 0 W/m2
19:33 45.9 °F 43.7 °F 29.7 in North 1.6 mph 3.1 mph 92% 0 in 0 W/m2
19:38 45.7 °F 43.5 °F 29.7 in North 0.7 mph 2.2 mph 92% 0 in 0 W/m2
19:43 45.5 °F 43.3 °F 29.7 in North 1.6 mph 2.2 mph 92% 0 in 0 W/m2
19:48 45.5 °F 43.5 °F 29.7 in North 1.6 mph 2.2 mph 93% 0 in 0 W/m2
19:53 45.3 °F 43.3 °F 29.7 in North 1.6 mph 2.2 mph 93% 0 in 0 W/m2
19:58 45 °F 43.2 °F 29.7 in North 2.2 mph 3.1 mph 93% 0 in 0 W/m2
20:03 44.8 °F 43 °F 29.7 in NNW 1.6 mph 3.1 mph 93% 0 in 0 W/m2
20:08 44.8 °F 43 °F 29.7 in NNW 1.6 mph 3.1 mph 93% 0 in 0 W/m2
20:13 44.6 °F 42.6 °F 29.7 in NNW 1.6 mph 3.1 mph 93% 0 in 0 W/m2
20:18 44.6 °F 43 °F 29.7 in NNW 2.2 mph 3.1 mph 94% 0 in 0 W/m2
20:23 44.6 °F 43 °F 29.7 in North 1.6 mph 3.1 mph 94% 0 in 0 W/m2
20:28 44.6 °F 43 °F 29.7 in North 1.6 mph 3.1 mph 94% 0 in 0 W/m2
20:33 44.4 °F 43.2 °F 29.7 in NNW 1.6 mph 3.1 mph 95% 0 in 0 W/m2
20:38 44.4 °F 43.2 °F 29.7 in NNW 2.2 mph 3.8 mph 95% 0 in 0 W/m2
20:43 44.4 °F 43.3 °F 29.7 in NNW 2.2 mph 3.8 mph 96% 0 in 0 W/m2
20:48 44.2 °F 43.2 °F 29.7 in NNW 1.6 mph 3.8 mph 96% 0 in 0 W/m2
20:53 44.2 °F 43.2 °F 29.7 in NW 3.1 mph 3.8 mph 96% 0 in 0 W/m2
20:58 44.4 °F 43.3 °F 29.7 in NW 3.1 mph 5.4 mph 96% 0 in 0 W/m2
21:03 44.2 °F 43.2 °F 29.7 in NNW 3.1 mph 5.4 mph 96% 0 in 0 W/m2
21:08 44.2 °F 43.2 °F 29.7 in NNW 2.2 mph 5.4 mph 96% 0 in 0 W/m2
21:13 44.1 °F 43.3 °F 29.7 in NNW 2.2 mph 4.5 mph 97% 0 in 0 W/m2
21:18 43.9 °F 43.2 °F 29.7 in NNW 1.6 mph 4.5 mph 97% 0 in 0 W/m2
21:23 43.7 °F 43 °F 29.7 in NNW 2.2 mph 3.1 mph 97% 0 in 0 W/m2
21:28 43.7 °F 43 °F 29.7 in NW 2.2 mph 4.5 mph 97% 0 in 0 W/m2
21:33 43.7 °F 43 °F 29.7 in NW 2.2 mph 4.5 mph 97% 0 in 0 W/m2
21:38 43.7 °F 43 °F 29.7 in NNW 2.2 mph 3.8 mph 97% 0 in 0 W/m2
21:43 43.3 °F 42.4 °F 29.7 in NW 2.2 mph 3.8 mph 97% 0 in 0 W/m2
21:48 43.3 °F 42.4 °F 29.7 in NW 1.6 mph 3.8 mph 97% 0 in 0 W/m2
21:53 43.3 °F 42.4 °F 29.7 in NW 2.2 mph 3.1 mph 97% 0 in 0 W/m2
21:58 43.2 °F 42.4 °F 29.7 in NNW 2.2 mph 3.8 mph 97% 0 in 0 W/m2
22:03 43.2 °F 42.4 °F 29.7 in NNW 1.6 mph 3.8 mph 97% 0 in 0 W/m2
22:08 43.2 °F 42.4 °F 29.7 in NW 3.1 mph 4.5 mph 97% 0 in 0 W/m2
22:13 43.2 °F 42.4 °F 29.7 in NW 1.6 mph 4.5 mph 97% 0 in 0 W/m2
22:18 43.2 °F 42.4 °F 29.7 in NW 2.2 mph 4.5 mph 97% 0 in 0 W/m2
22:23 43 °F 42.3 °F 29.7 in NW 2.2 mph 3.8 mph 97% 0 in 0 W/m2
22:28 43 °F 42.3 °F 29.7 in NW 3.8 mph 4.5 mph 97% 0 in 0 W/m2
22:33 43 °F 42.4 °F 29.7 in NW 3.1 mph 4.5 mph 98% 0 in 0 W/m2
22:38 43 °F 42.4 °F 29.7 in NNW 3.1 mph 4.5 mph 98% 0 in 0 W/m2
22:43 43 °F 42.4 °F 29.7 in NNW 3.8 mph 5.4 mph 98% 0 in 0 W/m2
22:48 43.2 °F 42.6 °F 29.7 in NNW 4.5 mph 6.9 mph 98% 0 in 0 W/m2
22:53 43.3 °F 42.8 °F 29.7 in NNW 3.8 mph 6.9 mph 98% 0 in 0 W/m2
22:58 43.3 °F 42.8 °F 29.7 in North 2.2 mph 6 mph 98% 0 in 0 W/m2
23:03 43.2 °F 42.6 °F 29.7 in North 2.2 mph 6 mph 98% 0 in 0 W/m2
23:08 43 °F 42.4 °F 29.7 in NNW 1.6 mph 3.8 mph 98% 0 in 0 W/m2
23:13 43 °F 42.4 °F 29.7 in NNW 3.1 mph 5.4 mph 98% 0 in 0 W/m2
23:18 43 °F 42.4 °F 29.7 in NNW 4.5 mph 6 mph 98% 0 in 0 W/m2
23:23 43.2 °F 42.6 °F 29.7 in NNW 3.1 mph 6 mph 98% 0 in 0 W/m2
23:28 43.2 °F 42.6 °F 29.7 in North 2.2 mph 6 mph 98% 0 in 0 W/m2
23:33 43.2 °F 42.6 °F 29.7 in North 2.2 mph 6 mph 98% 0 in 0 W/m2
23:38 43.2 °F 42.6 °F 29.7 in North 2.2 mph 6 mph 98% 0 in 0 W/m2
23:43 43 °F 42.4 °F 29.7 in NNW 1.6 mph 3.8 mph 98% 0 in 0 W/m2
23:48 42.8 °F 42.3 °F 29.7 in NW 2.2 mph 3.8 mph 98% 0 in 0 W/m2
23:53 42.6 °F 42.4 °F 29.7 in NW 3.1 mph 4.5 mph 99% 0 in 0 W/m2
23:58 42.4 °F 42.3 °F 29.7 in NNW 2.2 mph 4.5 mph 99% 0 in 0 W/m2
Northern Hawkes Bay. New Zealand Historic Data
Compliments of Weather Underground - 2 mb